Time,TemperatureF,DewpointF,PressureIn,WindDirection,WindDirectionDegrees,WindSpeedMPH,WindSpeedGustMPH,Humidity,HourlyPrecipIn,Conditions,Clouds,dailyrainin,SolarRadiationWatts/m^2,SoftwareType,DateUTC
2013-03-28 07:22:00,65.0,63.0,-100.00,NE,45,3.0,11.0,93,-99.99,,,-99.99,5.000000,,2013-03-28 17:22:00,
2013-03-28 07:42:00,65.0,63.0,-100.00,NE,45,3.0,11.0,93,-99.99,,,-99.99,5.000000,,2013-03-28 17:42:00,
2013-03-28 07:52:00,65.0,63.0,-100.00,NE,45,3.0,11.0,93,-99.99,,,-99.99,5.000000,,2013-03-28 17:52:00,
2013-03-28 08:52:00,66.0,63.0,-100.00,WNW,285,2.0,9.0,90,0.00,,,0.83,79.000000,,2013-03-28 18:52:00,
2013-03-28 09:22:00,74.0,65.0,-100.00,SE,141,4.0,12.0,74,0.00,,,0.77,363.000000,,2013-03-28 19:22:00,
2013-03-28 09:32:00,74.0,65.0,-100.00,SE,141,4.0,12.0,74,0.00,,,0.77,363.000000,,2013-03-28 19:32:00,
2013-03-28 09:42:00,74.0,65.0,-100.00,SE,141,4.0,12.0,74,0.00,,,0.77,363.000000,,2013-03-28 19:42:00,
2013-03-28 09:52:00,74.0,65.0,-100.00,SE,141,4.0,12.0,74,0.00,,,0.77,363.000000,,2013-03-28 19:52:00,
2013-03-28 10:22:00,75.0,63.0,-100.00,NE,54,6.0,16.0,66,0.00,,,0.76,735.000000,,2013-03-28 20:22:00,
2013-03-28 10:32:00,75.0,63.0,-100.00,NE,54,6.0,16.0,66,0.00,,,0.76,735.000000,,2013-03-28 20:32:00,
2013-03-28 10:42:00,75.0,63.0,-100.00,NE,54,6.0,16.0,66,0.00,,,0.76,735.000000,,2013-03-28 20:42:00,
2013-03-28 10:52:00,75.0,63.0,-100.00,NE,54,6.0,16.0,66,0.00,,,0.76,735.000000,,2013-03-28 20:52:00,
2013-03-28 11:22:00,75.0,63.0,-100.00,SE,139,8.0,18.0,66,0.00,,,0.11,953.000000,,2013-03-28 21:22:00,
2013-03-28 11:32:00,75.0,63.0,-100.00,SE,139,8.0,18.0,66,0.00,,,0.11,953.000000,,2013-03-28 21:32:00,
2013-03-28 11:42:00,75.0,63.0,-100.00,SE,139,8.0,18.0,66,0.00,,,0.11,953.000000,,2013-03-28 21:42:00,
2013-03-28 11:52:00,75.0,63.0,-100.00,SE,139,8.0,18.0,66,0.00,,,0.11,953.000000,,2013-03-28 21:52:00,
2013-03-28 12:22:00,76.0,64.0,-100.00,East,97,10.0,20.0,67,0.00,,,0.08,1105.000000,,2013-03-28 22:22:00,
2013-03-28 12:32:00,76.0,64.0,-100.00,East,97,10.0,20.0,67,0.00,,,0.08,1105.000000,,2013-03-28 22:32:00,
2013-03-28 12:42:00,76.0,64.0,-100.00,East,97,10.0,20.0,67,0.00,,,0.08,1105.000000,,2013-03-28 22:42:00,
2013-03-28 12:52:00,76.0,64.0,-100.00,East,97,10.0,20.0,67,0.00,,,0.08,1105.000000,,2013-03-28 22:52:00,
2013-03-28 13:22:00,73.0,61.0,-100.00,SSW,204,11.0,24.0,65,0.00,,,0.04,1181.000000,,2013-03-28 23:22:00,
2013-03-28 13:32:00,73.0,61.0,-100.00,SSW,204,11.0,24.0,65,0.00,,,0.04,1181.000000,,2013-03-28 23:32:00,
2013-03-28 13:42:00,73.0,61.0,-100.00,SSW,204,11.0,24.0,65,0.00,,,0.04,1181.000000,,2013-03-28 23:42:00,
2013-03-28 13:52:00,73.0,61.0,-100.00,SSW,204,11.0,24.0,65,0.00,,,0.04,1181.000000,,2013-03-28 23:52:00,
2013-03-28 14:22:00,75.0,63.0,-100.00,ENE,72,10.0,26.0,67,0.00,,,-99.99,1135.000000,,2013-03-29 00:22:00,
2013-03-28 14:32:00,75.0,63.0,-100.00,ENE,72,10.0,26.0,67,0.00,,,-99.99,1135.000000,,2013-03-29 00:32:00,
2013-03-28 14:42:00,75.0,63.0,-100.00,ENE,72,10.0,26.0,67,0.00,,,-99.99,1135.000000,,2013-03-29 00:42:00,
2013-03-28 14:52:00,75.0,63.0,-100.00,ENE,72,10.0,26.0,67,0.00,,,-99.99,1135.000000,,2013-03-29 00:52:00,
2013-03-28 15:22:00,73.0,62.0,-100.00,SE,143,13.0,26.0,68,0.00,,,-99.99,1024.000000,,2013-03-29 01:22:00,
2013-03-28 15:32:00,73.0,62.0,-100.00,SE,143,13.0,26.0,68,0.00,,,-99.99,1024.000000,,2013-03-29 01:32:00,
2013-03-28 15:42:00,73.0,62.0,-100.00,SE,143,13.0,26.0,68,0.00,,,-99.99,1024.000000,,2013-03-29 01:42:00,
2013-03-28 15:52:00,73.0,62.0,-100.00,SE,143,13.0,26.0,68,0.00,,,-99.99,1024.000000,,2013-03-29 01:52:00,
2013-03-28 16:22:00,74.0,65.0,-100.00,NNE,33,10.0,27.0,73,0.00,,,-99.99,818.000000,,2013-03-29 02:22:00,
2013-03-28 16:32:00,74.0,65.0,-100.00,NNE,33,10.0,27.0,73,0.00,,,-99.99,818.000000,,2013-03-29 02:32:00,
2013-03-28 16:42:00,74.0,65.0,-100.00,NNE,33,10.0,27.0,73,0.00,,,-99.99,818.000000,,2013-03-29 02:42:00,
2013-03-28 16:52:00,74.0,65.0,-100.00,NNE,33,10.0,27.0,73,0.00,,,-99.99,818.000000,,2013-03-29 02:52:00,
2013-03-28 17:21:00,72.0,64.0,-100.00,SSE,167,11.0,26.0,75,0.00,,,-99.99,581.000000,,2013-03-29 03:21:00,
2013-03-28 17:32:00,72.0,64.0,-100.00,SSE,167,11.0,26.0,75,0.00,,,-99.99,581.000000,,2013-03-29 03:32:00,
2013-03-28 17:42:00,72.0,64.0,-100.00,SSE,167,11.0,26.0,75,0.00,,,-99.99,581.000000,,2013-03-29 03:42:00,
2013-03-28 17:52:00,72.0,64.0,-100.00,SSE,167,11.0,26.0,75,0.00,,,-99.99,581.000000,,2013-03-29 03:52:00,
2013-03-28 18:22:00,69.0,64.0,-100.00,ESE,108,10.0,25.0,85,0.00,,,-99.99,306.000000,,2013-03-29 04:22:00,
2013-03-28 18:33:00,69.0,64.0,-100.00,ESE,108,10.0,25.0,85,0.00,,,-99.99,306.000000,,2013-03-29 04:33:00,
2013-03-28 18:42:00,69.0,64.0,-100.00,ESE,108,10.0,25.0,85,0.00,,,-99.99,306.000000,,2013-03-29 04:42:00,
2013-03-28 18:52:00,69.0,64.0,-100.00,ESE,108,10.0,25.0,85,0.00,,,-99.99,306.000000,,2013-03-29 04:52:00,
2013-03-28 19:23:00,66.0,64.0,-100.00,ENE,65,10.0,22.0,94,0.01,,,-99.99,41.000000,,2013-03-29 05:23:00,
2013-03-28 19:32:00,66.0,64.0,-100.00,ENE,65,10.0,22.0,94,0.01,,,-99.99,41.000000,,2013-03-29 05:32:00,
2013-03-28 19:43:00,66.0,64.0,-100.00,ENE,65,10.0,22.0,94,0.01,,,-99.99,41.000000,,2013-03-29 05:43:00,
2013-03-28 19:52:00,66.0,64.0,-100.00,ENE,65,10.0,22.0,94,0.01,,,-99.99,41.000000,,2013-03-29 05:52:00,
2013-03-28 20:22:00,64.0,63.0,-100.00,ENE,66,10.0,22.0,96,0.01,,,-99.99,0.000000,,2013-03-29 06:22:00,
2013-03-28 20:32:00,64.0,63.0,-100.00,ENE,66,10.0,22.0,96,0.01,,,-99.99,0.000000,,2013-03-29 06:32:00,
2013-03-28 20:42:00,64.0,63.0,-100.00,ENE,66,10.0,22.0,96,0.01,,,-99.99,0.000000,,2013-03-29 06:42:00,
2013-03-28 20:52:00,64.0,63.0,-100.00,ENE,66,10.0,22.0,96,0.01,,,-99.99,0.000000,,2013-03-29 06:52:00,
2013-03-28 21:22:00,64.0,63.0,-100.00,NE,55,8.0,24.0,96,0.01,,,-99.99,0.000000,,2013-03-29 07:22:00,
2013-03-28 21:32:00,64.0,63.0,-100.00,NE,55,8.0,24.0,96,0.01,,,-99.99,0.000000,,2013-03-29 07:32:00,
2013-03-28 21:42:00,64.0,63.0,-100.00,NE,55,8.0,24.0,96,0.01,,,-99.99,0.000000,,2013-03-29 07:42:00,
2013-03-28 21:52:00,64.0,63.0,-100.00,NE,55,8.0,24.0,96,0.01,,,-99.99,0.000000,,2013-03-29 07:52:00,
2013-03-28 22:22:00,65.0,64.0,-100.00,ESE,102,4.0,15.0,98,0.00,,,-99.99,0.000000,,2013-03-29 08:22:00,
2013-03-28 22:32:00,65.0,64.0,-100.00,ESE,102,4.0,15.0,98,0.00,,,-99.99,0.000000,,2013-03-29 08:32:00,
2013-03-28 22:42:00,65.0,64.0,-100.00,ESE,102,4.0,15.0,98,0.00,,,-99.99,0.000000,,2013-03-29 08:42:00,
2013-03-28 22:52:00,65.0,64.0,-100.00,ESE,102,4.0,15.0,98,0.00,,,-99.99,0.000000,,2013-03-29 08:52:00,
2013-03-28 23:22:00,65.0,65.0,-100.00,ESE,102,1.0,12.0,100,0.01,,,-99.99,0.000000,,2013-03-29 09:22:00,
2013-03-28 23:32:00,65.0,65.0,-100.00,ESE,102,1.0,12.0,100,0.01,,,-99.99,0.000000,,2013-03-29 09:32:00,
2013-03-28 23:42:00,65.0,65.0,-100.00,ESE,102,1.0,12.0,100,0.01,,,-99.99,0.000000,,2013-03-29 09:42:00,
2013-03-28 23:52:00,65.0,65.0,-100.00,ESE,102,1.0,12.0,100,0.01,,,-99.99,0.000000,,2013-03-29 09:52:00,